La Crosse, WI

10:08 PM CDT on May 25, 2017 (GMT -0500)
La Crosse Municipal

Weather History for KLSE - May, 2014

Change the Weather History Date:

Sunday, May 11, 2014

  Actual Average Record
Temperature  
Mean Temperature 61 °F 58 °F  
Max Temperature 70 °F 69 °F 89 °F (1922)
Min Temperature 52 °F 47 °F 30 °F (1925)
Degree Days  
Heating Degree Days 4 8  
Month to date heating degree days 106 98  
Since 1 July heating degree days 8046 7050  
Cooling Degree Days 0 1  
Month to date cooling degree days 1 9  
Year to date cooling degree days 1 16  
Growing Degree Days 12 (Base 50)    
Moisture  
Dew Point 55 °F    
Average Humidity 76    
Maximum Humidity 93    
Minimum Humidity 58    
Precipitation  
Precipitation 0.20 in 0.11 in 1.32 in (1875)
Month to date precipitation 0.87 1.24  
Year to date precipitation 11.57 8.79  
Snow  
Snow 0.00 in 0.00 in T in (2013)
Month to date snowfall 0.0 0.1  
Since 1 July snowfall 48.9 43.4  
Snow Depth 0.00 in    
Sea Level Pressure  
Sea Level Pressure 29.84 in    
Wind  
Wind Speed 6 mph (SSE)    
Max Wind Speed 16 mph    
Max Gust Speed 23 mph    
Visibility 9 miles    
Events Rain , Thunderstorm    
T = Trace of Precipitation, MM = Missing Value Source: NWS Daily Summary

Daily Weather History Graph

Daily Weather History Graph

Search for Another Location

Airport or City:

Trip Planner

Search our weather history database for the weather conditions in past years. The results will help you decide how hot, cold, wet, or windy it might be!

Date:

Astronomy

May. 11, 2014 Rise Set
Actual Time 5:43 AM CDT 8:19 PM CDT
Civil Twilight 5:11 AM CDT 8:52 PM CDT
Nautical Twilight 4:29 AM CDT 9:33 PM CDT
Astronomical Twilight 3:43 AM CDT 10:21 PM CDT
Moon 5:09 PM CDT (5/11) 3:56 AM CDT (5/11)
Length of Visible Light 15h 41m
Length of Day
14h 35m
Waxing Gibbous, 89% of the Moon is Illuminated
May 11
Waxing Gibbous
May 14
Full
May 21
Last Quarter
May 28
New
Jun 5
First Quarter

Hourly Weather History & Observations

Time (CDT) Temp. Dew Point Humidity Pressure Visibility Wind Dir Wind Speed Gust Speed Precip Events Conditions
1:53 AM 57.0 °F 52.0 °F 83% 29.85 in 10.0 mi Calm Calm - 0.02 in   Partly Cloudy
2:53 AM 57.0 °F 51.1 °F 81% 29.84 in 10.0 mi SE 4.6 mph - N/A   Mostly Cloudy
3:53 AM 57.9 °F 50.0 °F 75% 29.84 in 10.0 mi SSE 6.9 mph - N/A   Partly Cloudy
4:53 AM 55.0 °F 48.9 °F 80% 29.84 in 10.0 mi SE 4.6 mph - N/A   Clear
5:53 AM 54.0 °F 48.0 °F 80% 29.84 in 10.0 mi SSE 3.5 mph - N/A   Clear
6:53 AM 55.9 °F 50.0 °F 80% 29.84 in 10.0 mi SE 4.6 mph - N/A   Clear
7:53 AM 60.1 °F 50.0 °F 69% 29.86 in 10.0 mi South 4.6 mph - N/A   Clear
8:53 AM 64.9 °F 51.1 °F 61% 29.87 in 10.0 mi South 5.8 mph - N/A   Clear
9:53 AM 66.0 °F 51.1 °F 59% 29.87 in 10.0 mi South 6.9 mph - N/A   Clear
10:53 AM 66.9 °F 52.0 °F 59% 29.87 in 10.0 mi SSE 4.6 mph - N/A   Clear
11:53 AM 68.0 °F 53.1 °F 59% 29.86 in 10.0 mi Calm Calm - N/A   Clear
1:33 PM 66.9 °F 55.9 °F 68% 29.92 in 10.0 mi WSW 9.2 mph - 0.00 in Thunderstorm Overcast
1:43 PM 63.0 °F 55.9 °F 78% 29.92 in 2.5 mi WSW 5.8 mph - 0.01 in Rain Light Rain
1:53 PM 64.0 °F 57.9 °F 80% 29.91 in 2.0 mi WSW 6.9 mph - 0.09 in Rain Rain
2:02 PM 64.0 °F 59.0 °F 84% 29.92 in 4.0 mi South 4.6 mph - 0.02 in Rain Rain
2:53 PM 63.0 °F 60.1 °F 90% 29.87 in 4.0 mi NE 6.9 mph - 0.09 in Rain Rain
4:53 PM 66.9 °F 60.1 °F 79% 29.84 in 10.0 mi ESE 3.5 mph - 0.00 in   Overcast
5:53 PM 69.1 °F 57.9 °F 68% 29.81 in 10.0 mi East 9.2 mph - N/A   Clear
6:53 PM 70.0 °F 57.9 °F 65% 29.81 in 10.0 mi East 8.1 mph - N/A   Clear
7:53 PM 69.1 °F 57.9 °F 68% 29.79 in 10.0 mi East 8.1 mph - N/A   Overcast
8:53 PM 68.0 °F 57.0 °F 68% 29.80 in 10.0 mi SE 5.8 mph - N/A   Overcast
9:53 PM 66.9 °F 57.9 °F 73% 29.77 in 10.0 mi North - - 0.00 in   Scattered Clouds
10:53 PM 68.0 °F 57.9 °F 70% 29.77 in 10.0 mi East 13.8 mph 20.7 mph N/A   Overcast
11:53 PM 68.0 °F 57.0 °F 68% 29.74 in 10.0 mi SSE 4.6 mph - N/A   Overcast